Theta_e
320 320 319 320 321 321 323 324 324 325 326 325 324 324 324 324 325 325 325 324 325 334 334 335 337 340 343 332 337 349 354 354 353 355 354 353 354 351 350 348 348 347 346 345
321 322 322 322 322 323 323 323 324 324 325 324 323 323 324 325 325 324 324 324 325 331 334 335 337 341 344 346 338 350 349 353 354 355 355 355 354 353 352 350 349 347 346 345
323 323 324 324 324 324 323 323 324 323 324 325 324 323 323 324 323 324 325 330 329 331 333 336 340 342 344 346 346 345 347 352 353 354 355 355 355 354 353 351 350 343 344 343
323 323 323 324 323 323 323 323 323 323 323 323 324 323 326 325 325 325 327 329 330 332 334 338 342 343 344 347 351 352 345 346 352 354 354 355 353 353 352 351 349 348 345 338
324 324 324 324 324 324 323 323 323 323 323 323 323 323 324 327 326 327 327 327 330 333 336 339 340 340 342 345 348 353 351 348 350 353 351 352 354 354 353 350 351 351 349 347
323 322 324 325 325 324 324 323 323 323 324 324 324 324 325 326 328 328 328 331 332 334 335 336 336 337 337 339 341 343 349 349 348 350 349 349 351 352 350 350 350 349 349 349
324 323 323 324 325 324 323 323 324 325 326 325 324 325 327 330 328 329 332 332 332 332 332 330 332 334 335 335 335 335 336 339 342 346 348 346 346 346 350 348 350 351 348 348
322 323 323 322 324 323 323 324 324 326 327 325 327 329 333 334 332 333 333 332 331 331 328 326 329 330 330 329 331 334 333 332 333 336 337 342 344 348 345 345 346 348 350 349
323 324 324 323 322 321 322 323 323 326 326 326 327 331 333 333 334 333 331 329 330 330 326 323 323 323 322 324 327 331 331 331 330 331 332 335 337 341 342 346 346 346 346 347
321 322 322 323 322 320 320 321 322 325 328 327 327 331 334 328 330 326 323 327 325 324 323 323 323 323 323 323 323 323 323 326 327 327 329 328 330 332 331 338 343 347 346 346
319 320 321 323 321 321 322 321 321 322 328 328 327 327 329 329 328 324 322 320 321 323 322 321 320 320 320 320 320 321 323 321 321 324 326 327 326 327 328 329 336 339 344 345
318 319 323 323 323 323 324 324 324 325 325 328 329 329 328 327 324 322 321 320 318 317 317 317 317 317 317 317 317 318 318 319 320 320 321 326 326 326 324 323 331 328 335 341
316 320 322 321 319 322 323 322 323 323 326 326 329 330 324 323 322 321 320 319 319 318 318 317 317 316 315 315 315 316 316 317 318 319 319 320 324 326 323 322 324 332 333 333
313 316 318 319 320 320 321 320 319 319 324 322 321 322 324 322 321 319 318 318 318 316 316 316 316 315 315 314 314 314 315 315 317 318 318 318 319 325 325 322 319 320 331 334
315 316 316 317 317 318 320 317 316 317 318 318 318 320 321 320 321 320 318 317 315 314 314 314 314 314 314 313 313 314 314 314 315 316 317 318 317 321 325 322 317 320 318 328
318 318 317 318 317 316 317 315 315 315 316 316 316 317 318 317 318 316 315 314 314 314 313 314 314 313 313 313 313 313 313 313 314 314 315 317 317 317 321 322 318 319 321 313
316 318 319 319 317 318 317 315 315 315 314 315 315 316 315 315 314 314 314 314 314 314 314 313 313 312 312 312 312 312 312 313 313 313 314 314 316 317 316 322 320 317 319 318
314 315 318 318 318 319 317 315 313 313 314 313 314 315 315 315 314 313 313 315 315 314 313 313 312 312 312 312 312 311 312 312 312 313 313 313 314 316 316 316 321 320 316 313
312 314 315 318 317 316 315 314 313 312 314 312 313 313 314 315 314 315 314 314 313 313 312 312 312 311 310 310 310 310 310 311 311 311 312 313 313 314 316 317 317 319 319 316
313 314 315 314 319 316 318 314 312 312 315 316 315 315 315 314 314 316 313 313 312 312 311 310 311 310 309 309 310 309 309 309 309 310 311 312 312 313 313 315 317 316 318 317
313 313 317 317 317 315 315 314 313 312 318 315 315 314 314 314 313 313 312 312 311 311 310 310 309 310 309 309 308 308 308 309 309 309 310 310 311 312 312 313 314 316 316 318
317 314 314 315 316 316 314 314 313 318 315 314 313 313 312 312 312 312 311 311 310 310 310 309 309 309 308 308 309 308 309 309 309 310 309 309 310 310 312 313 313 314 316 315
317 316 318 317 315 315 316 315 315 315 314 313 312 312 312 312 311 311 311 310 310 309 309 309 308 307 308 309 309 309 309 309 310 310 310 311 309 309 310 310 311 312 314 316
315 313 319 316 314 315 315 314 314 313 313 312 312 312 311 311 311 311 310 310 309 309 308 308 308 308 308 309 309 309 309 311 309 310 310 311 311 311 311 310 309 309 310 313
312 311 313 313 312 313 313 313 313 313 312 312 311 311 311 310 310 309 309 308 308 308 308 307 308 307 308 308 308 310 310 309 310 310 310 311 311 310 311 311 311 309 309 311
310 310 315 314 312 313 314 313 312 311 312 312 311 310 309 309 308 308 307 307 307 308 307 306 307 308 309 309 308 309 309 308 309 309 310 310 310 311 310 310 310 311 310 310
Wind_Speed
18 13 15 18 20 21 21 23 22 17 13 13 13 14 14 18 12 15 15 14 13 19 15 10 9 7 5 5 9 15 15 19 21 21 22 24 22 23 24 23 24 25 25 23
14 17 17 18 20 20 22 22 22 16 19 11 8 13 15 16 14 18 15 17 18 19 16 10 6 6 5 4 9 10 12 16 19 22 20 17 19 20 20 24 29 29 29 27
18 19 20 21 19 21 21 16 16 17 19 19 16 14 18 20 21 16 15 11 12 10 10 8 8 5 4 5 6 1 10 13 17 19 19 21 18 18 19 27 27 28 35 32
19 21 22 22 15 16 21 15 19 19 18 15 13 14 18 20 17 14 14 11 8 9 6 10 13 10 6 8 8 10 6 12 12 15 20 17 19 24 21 21 27 24 24 30
21 21 21 24 23 18 20 17 17 20 16 17 22 13 16 15 18 18 13 11 12 13 14 16 14 10 9 11 8 9 10 11 9 7 14 17 16 17 18 21 19 21 22 20
22 30 24 24 23 20 15 19 17 17 14 14 20 19 17 14 15 19 20 16 13 16 16 15 12 10 14 15 15 12 7 6 4 8 10 14 20 15 18 17 23 24 23 24
18 22 24 26 16 16 11 9 10 14 14 15 17 18 15 3 5 23 20 20 15 14 18 12 9 13 15 16 17 17 18 17 10 1 4 9 14 14 20 23 19 14 22 26
15 19 15 13 17 18 14 13 12 17 14 14 8 8 4 16 21 28 22 18 17 16 17 13 9 14 14 14 16 17 17 19 19 12 14 10 7 10 14 20 22 23 18 19
11 16 17 4 4 16 14 16 14 9 15 14 15 6 11 10 12 12 18 17 13 14 12 13 11 12 11 15 15 16 17 18 18 18 15 10 13 11 6 13 17 21 24 21
11 18 21 16 13 17 17 16 10 6 5 12 16 9 6 8 16 14 25 11 11 7 11 8 13 10 10 12 14 12 13 14 16 16 17 15 12 15 13 11 13 14 14 18
14 14 21 9 10 11 12 15 16 13 7 5 11 4 2 14 11 11 19 21 20 5 10 8 7 8 9 9 10 12 9 13 12 13 14 17 16 13 15 14 11 11 16 13
11 9 13 21 12 14 16 12 4 5 11 5 6 5 5 10 14 19 13 6 8 9 10 9 9 9 9 10 10 11 10 11 9 10 9 15 17 13 14 13 16 15 12 16
10 5 8 12 15 1 7 11 17 13 7 13 4 1 4 6 14 12 17 18 17 5 5 6 7 11 10 10 11 11 11 11 11 11 11 10 14 15 13 11 9 12 16 13
3 8 12 12 6 3 9 16 16 10 11 14 12 10 10 10 10 4 2 3 3 4 4 5 6 8 11 12 13 13 13 12 13 13 12 13 11 13 13 13 10 7 6 13
3 13 14 17 19 11 18 12 13 14 13 12 13 6 3 5 8 9 6 4 8 6 7 7 7 10 12 16 16 14 15 15 15 15 15 15 16 11 11 15 11 11 7 6
7 11 14 17 18 16 18 16 9 14 15 16 13 12 13 8 12 12 7 8 6 5 7 7 10 13 16 17 17 17 17 17 17 17 16 16 16 16 14 12 14 10 12 8
10 8 10 13 15 13 12 10 11 12 12 13 13 8 7 4 3 3 5 8 10 7 9 9 12 14 17 19 19 19 20 20 20 19 18 18 17 18 19 16 15 16 14 10
13 10 8 11 12 11 10 2 4 9 11 12 12 4 4 4 8 4 9 11 12 11 11 12 15 16 17 19 20 22 22 21 21 21 20 20 19 19 20 21 19 20 20 15
13 9 7 3 9 11 12 8 4 5 10 6 2 9 13 9 1 12 13 10 10 11 12 14 17 18 21 22 23 23 23 22 22 22 22 21 21 22 22 21 23 16 15 19
12 11 8 10 5 4 6 2 6 4 2 19 17 14 10 4 4 6 8 10 10 11 14 18 16 18 20 21 19 18 22 22 24 24 22 19 22 25 27 23 21 21 16 21
6 9 9 9 7 6 5 4 4 7 4 4 12 11 10 7 9 13 12 12 13 16 16 20 17 17 18 17 19 16 16 18 18 19 22 25 24 23 25 30 26 25 25 25
7 5 9 10 9 9 5 10 4 5 5 8 6 8 9 10 12 15 17 18 19 19 18 19 17 17 18 20 19 19 23 21 21 20 20 24 25 29 26 23 24 27 26 30
2 7 2 4 2 6 3 6 5 1 2 4 9 8 9 11 14 17 18 19 20 19 20 18 21 21 21 21 19 22 21 21 23 24 26 28 26 25 25 30 32 31 26 27
5 12 3 7 7 6 9 9 8 2 2 2 5 8 11 16 17 17 18 16 19 22 19 18 17 20 21 22 25 23 23 21 23 24 27 24 25 25 26 27 28 33 35 31
10 2 9 8 5 6 6 7 8 7 4 7 8 8 10 14 15 16 18 18 17 19 18 20 19 22 23 23 24 23 23 21 22 24 22 21 23 23 23 25 28 27 32 33
16 10 4 5 8 3 3 2 5 7 6 7 9 11 13 16 19 20 21 19 19 16 16 20 21 23 22 23 21 18 19 19 19 18 19 22 25 22 25 25 28 24 27 31
Wind_Direction
231 240 240 236 237 252 268 278 287 293 239 183 217 258 240 251 196 209 213 233 229 117 108 69 50 53 62 192 165 204 202 209 205 217 219 213 222 217 221 217 224 222 237 238
246 238 251 256 257 253 254 257 271 281 287 283 230 244 264 265 233 216 221 226 212 119 111 90 69 51 46 34 175 177 208 215 217 215 226 235 225 226 228 228 227 227 225 231
252 253 246 235 250 267 253 272 270 267 270 264 248 261 258 252 241 232 202 49 115 107 96 114 103 67 52 49 54 149 195 219 227 221 221 226 223 230 231 231 244 233 232 232
253 262 262 270 249 260 268 241 260 263 274 263 207 251 243 236 211 205 152 149 135 126 139 110 104 77 75 68 79 73 14 199 226 231 216 225 235 234 232 241 249 249 246 241
259 266 257 263 259 253 259 274 264 264 243 267 271 257 269 236 209 169 174 179 147 136 102 92 82 71 64 66 74 102 117 146 183 234 225 234 238 235 242 236 238 260 266 251
271 276 271 269 265 252 256 262 255 262 272 241 248 261 266 243 214 162 161 147 151 128 112 101 107 87 66 63 56 59 106 117 173 194 227 234 232 235 229 239 233 245 253 259
262 250 255 255 260 256 239 242 253 249 239 249 245 246 252 27 237 169 142 146 140 140 122 118 97 91 71 64 59 52 57 56 53 85 233 233 232 246 240 232 248 231 247 259
299 295 338 1 274 230 226 230 237 253 260 261 282 329 344 52 86 113 123 146 148 154 119 119 99 89 83 70 59 58 52 49 42 48 42 34 17 249 242 239 246 241 239 243
314 294 347 241 221 308 272 258 240 272 292 280 270 139 94 69 70 94 118 137 139 116 118 118 100 84 78 71 61 55 48 41 40 32 30 33 22 354 319 249 241 244 245 247
313 305 306 287 203 242 284 306 276 148 244 266 272 166 216 325 351 16 11 100 115 131 134 100 97 72 66 65 62 54 46 36 26 27 16 17 21 8 358 330 277 256 250 250
310 287 281 287 254 271 240 220 241 262 147 252 278 296 33 169 167 60 33 26 359 34 55 54 54 65 34 29 21 30 21 23 21 19 7 351 3 2 358 1 341 303 260 247
338 300 290 288 233 207 299 314 176 291 264 5 308 301 350 103 124 128 156 146 13 11 25 30 33 45 31 21 16 14 9 2 348 351 352 353 340 359 358 359 358 347 317 263
353 316 305 297 266 37 325 287 270 290 242 224 233 172 31 176 176 169 166 166 189 162 88 356 6 6 9 1 356 354 350 343 345 335 330 325 339 332 335 338 342 352 346 321
349 276 278 284 273 189 277 312 315 261 237 263 257 292 137 227 240 197 294 282 287 11 336 333 339 336 345 341 338 338 337 335 329 321 317 317 298 324 328 330 327 314 341 338
235 270 283 287 287 229 234 240 257 279 281 275 280 292 303 248 243 231 195 254 285 297 310 330 349 348 338 333 329 324 320 318 320 318 313 306 311 293 298 310 318 330 316 300
321 286 283 288 288 271 287 272 267 275 272 273 280 287 121 243 192 172 224 270 269 313 311 5 357 340 327 321 321 317 314 312 309 307 306 305 299 301 291 285 295 318 308 313
268 290 291 283 286 317 275 293 306 280 255 271 261 268 23 21 60 328 357 344 314 332 25 351 333 325 317 314 309 308 307 307 307 306 300 296 296 291 287 280 273 271 285 298
265 264 279 289 290 274 268 258 323 307 296 291 289 267 173 213 95 39 342 34 27 5 344 330 323 319 317 314 309 307 310 302 300 298 299 296 290 288 284 283 280 273 276 277
227 236 267 264 283 285 297 22 314 327 320 216 306 202 71 47 47 72 47 17 342 329 329 327 318 315 312 308 304 302 299 301 298 295 295 293 291 288 294 285 285 283 265 287
203 213 234 261 272 257 66 4 354 340 204 351 23 62 53 23 281 113 22 326 333 327 324 316 322 317 311 308 305 300 299 297 299 296 297 297 299 289 282 286 284 282 280 267
255 219 223 248 254 275 261 300 341 259 84 26 23 18 6 350 343 318 328 336 324 318 321 318 321 306 311 308 309 305 308 303 301 297 295 292 289 297 289 279 281 277 278 263
217 232 223 232 242 256 99 201 286 102 51 357 343 342 347 331 312 306 310 312 316 308 308 307 309 313 310 302 300 292 291 298 306 304 305 297 284 282 283 279 281 278 273 268
292 252 305 20 293 332 335 143 178 214 358 331 338 349 339 316 307 309 308 310 295 305 298 307 309 301 299 301 296 297 302 297 296 295 296 293 295 290 285 281 273 274 275 269
254 8 316 126 238 266 263 236 253 214 283 316 6 329 321 318 305 306 306 306 307 301 303 306 302 305 304 301 303 289 295 286 292 293 295 300 291 290 291 285 287 274 271 269
273 133 266 315 307 293 78 52 29 33 0 353 344 319 318 317 304 301 308 309 304 308 306 305 304 303 301 301 295 295 291 289 291 290 296 306 306 300 292 286 282 279 273 270
289 309 296 289 317 323 98 15 335 329 12 345 328 326 318 312 307 307 314 307 306 306 310 310 303 304 304 305 306 299 291 290 295 304 308 301 297 295 299 298 298 289 276 272